SDM6567 ULLI-URSS

Flight info

Callsign SDM6567
Flight time N/A
Altitude 35000
Route SUGIN1B SUGIN T873 NIRGI DCT OSKAD DCT UPERI DCT OMEZA/K0833F370 DCT ABAGI B105 NIMTA DCT SL DCT LIDUS DCT AST DCT DITEK/K0857F380 DCT GOTIK DCT MEMZA DCT OKOBA DCT VENFO DCT BINOL BINOL1K
Aircraft A319/M-SDE3FGHIRWY/LB1

Departure

Time N/A
Airport Pulkovo Airport (ULLI)

Arrival

Time 2026-05-06 15:22
Airport Sochi International Airport (URSS)
Time Latitude Longitude Altitude Speed Heading
2026-05-06 11:56 58.70990 33.66867 34869 ft 482 kts 140°
2026-05-06 11:56 58.68579 33.71298 34869 ft 481 kts 140°
2026-05-06 11:57 58.63762 33.80116 34869 ft 481 kts 140°
2026-05-06 11:57 58.58939 33.88892 34869 ft 481 kts 140°
2026-05-06 11:58 58.54086 33.97677 34869 ft 481 kts 140°
2026-05-06 11:58 58.49227 34.06442 34868 ft 481 kts 140°
2026-05-06 11:59 58.44360 34.15187 34869 ft 481 kts 140°
2026-05-06 11:59 58.39498 34.23888 34869 ft 481 kts 140°
2026-05-06 12:00 58.34643 34.32544 34869 ft 481 kts 140°
2026-05-06 12:00 58.29744 34.41254 34866 ft 481 kts 140°
2026-05-06 12:01 58.24857 34.49898 34857 ft 481 kts 140°
2026-05-06 12:01 58.19851 34.58219 34839 ft 479 kts 144°
2026-05-06 12:02 58.14449 34.65502 34829 ft 478 kts 149°
2026-05-06 12:02 58.08992 34.72578 34829 ft 478 kts 149°
2026-05-06 12:03 58.03536 34.79638 34834 ft 478 kts 149°
2026-05-06 12:03 57.98066 34.86676 34837 ft 479 kts 149°
2026-05-06 12:04 57.92567 34.93718 34836 ft 481 kts 148°
2026-05-06 12:04 57.87043 35.00756 34837 ft 482 kts 148°
2026-05-06 12:05 57.81491 35.07784 34839 ft 483 kts 148°
2026-05-06 12:05 57.75943 35.14806 34838 ft 483 kts 148°
2026-05-06 12:06 57.70386 35.21820 34838 ft 483 kts 148°
2026-05-06 12:06 57.64827 35.28812 34838 ft 483 kts 148°
2026-05-06 12:07 57.59253 35.35796 34837 ft 483 kts 148°
2026-05-06 12:07 57.53702 35.42726 34839 ft 483 kts 148°
2026-05-06 12:08 57.48121 35.49668 34838 ft 483 kts 148°
2026-05-06 12:08 57.42583 35.56528 34838 ft 483 kts 148°
2026-05-06 12:09 57.36977 35.63447 34837 ft 483 kts 148°
2026-05-06 12:09 57.31421 35.70305 34837 ft 483 kts 149°
2026-05-06 12:10 57.25859 35.77141 34838 ft 483 kts 149°
2026-05-06 12:10 57.20253 35.83994 34838 ft 483 kts 149°
2026-05-06 12:11 57.14664 35.90794 34838 ft 483 kts 149°
2026-05-06 12:11 57.09066 35.97577 34836 ft 484 kts 148°
2026-05-06 12:12 57.03451 36.04340 34836 ft 486 kts 147°
2026-05-06 12:12 56.97834 36.11094 34837 ft 487 kts 147°
2026-05-06 12:13 56.92164 36.17905 34840 ft 486 kts 146°
2026-05-06 12:13 56.86521 36.24647 34837 ft 486 kts 147°
2026-05-06 12:14 56.80851 36.31369 34836 ft 486 kts 146°
2026-05-06 12:14 56.75206 36.38060 34836 ft 486 kts 146°
2026-05-06 12:15 56.69546 36.44764 34837 ft 486 kts 146°
2026-05-06 12:15 56.63921 36.51411 34837 ft 485 kts 146°
2026-05-06 12:16 56.58262 36.58081 34838 ft 486 kts 146°
2026-05-06 12:16 56.52626 36.64697 34837 ft 486 kts 146°
2026-05-06 12:17 56.46959 36.71351 34838 ft 486 kts 147°
2026-05-06 12:17 56.41311 36.77957 34838 ft 486 kts 147°
2026-05-06 12:18 56.35622 36.84571 34839 ft 487 kts 147°
2026-05-06 12:18 56.29948 36.91140 34839 ft 486 kts 147°
2026-05-06 12:19 56.24291 36.97664 34838 ft 486 kts 147°
2026-05-06 12:19 56.18594 37.04201 34838 ft 487 kts 147°
2026-05-06 12:20 56.12911 37.10705 34837 ft 489 kts 147°
2026-05-06 12:20 56.07169 37.17254 34837 ft 491 kts 146°
2026-05-06 12:21 56.01413 37.23799 34838 ft 492 kts 146°
2026-05-06 12:21 55.95673 37.30304 34838 ft 492 kts 146°
2026-05-06 12:22 55.89888 37.36836 34838 ft 492 kts 146°
2026-05-06 12:22 55.84141 37.43271 34837 ft 491 kts 146°
2026-05-06 12:23 55.78336 37.49752 34838 ft 492 kts 146°
2026-05-06 12:23 55.72594 37.56160 34839 ft 492 kts 146°
2026-05-06 12:24 55.66781 37.62629 34839 ft 492 kts 146°
2026-05-06 12:24 55.61013 37.69041 34838 ft 492 kts 147°
2026-05-06 12:25 55.55265 37.75422 34838 ft 492 kts 147°
2026-05-06 12:25 55.49444 37.81846 34838 ft 492 kts 147°
2026-05-06 12:26 55.43673 37.88183 34838 ft 492 kts 147°
2026-05-06 12:26 55.37880 37.94532 34839 ft 492 kts 147°
2026-05-06 12:27 55.32167 38.01021 34838 ft 492 kts 146°
2026-05-06 12:27 55.26438 38.07570 34837 ft 492 kts 146°
2026-05-06 12:28 55.20720 38.14069 34838 ft 492 kts 146°
2026-05-06 12:28 55.14970 38.20570 34839 ft 492 kts 146°
2026-05-06 12:29 55.09258 38.27007 34839 ft 492 kts 146°
2026-05-06 12:29 55.03506 38.33465 34838 ft 492 kts 146°
2026-05-06 12:30 54.97757 38.39903 34839 ft 491 kts 146°
2026-05-06 12:30 54.92040 38.46286 34839 ft 490 kts 146°
2026-05-06 12:31 54.86326 38.52618 34838 ft 490 kts 147°
2026-05-06 12:31 54.80800 38.59467 34839 ft 489 kts 137°
2026-05-06 12:32 54.76179 38.67970 34839 ft 486 kts 126°
2026-05-06 12:32 54.72675 38.77919 34839 ft 483 kts 113°
2026-05-06 12:33 54.70013 38.88546 34839 ft 482 kts 110°
2026-05-06 12:33 54.67421 38.99156 34839 ft 483 kts 110°
2026-05-06 12:34 54.64780 39.09803 34839 ft 483 kts 110°
2026-05-06 12:34 54.62122 39.20416 34839 ft 483 kts 110°
2026-05-06 12:35 54.59446 39.31038 34838 ft 482 kts 110°
2026-05-06 12:35 54.56775 39.41583 34838 ft 482 kts 110°
2026-05-06 12:36 54.54092 39.52111 34839 ft 483 kts 110°
2026-05-06 12:36 54.51384 39.62694 34844 ft 483 kts 110°
2026-05-06 12:37 54.48687 39.73200 34855 ft 483 kts 111°
2026-05-06 12:37 54.45971 39.83733 34872 ft 483 kts 111°
2026-05-06 12:38 54.43247 39.94235 34885 ft 483 kts 111°
2026-05-06 12:38 54.40510 40.04732 34891 ft 483 kts 111°
2026-05-06 12:39 54.37764 40.15212 34893 ft 483 kts 111°
2026-05-06 12:39 54.34989 40.25752 34894 ft 483 kts 111°
2026-05-06 12:40 54.32242 40.36140 34894 ft 483 kts 111°
2026-05-06 12:40 54.29459 40.46617 34894 ft 483 kts 111°
2026-05-06 12:41 54.26682 40.57021 34894 ft 483 kts 111°
2026-05-06 12:41 54.23896 40.67415 34893 ft 483 kts 112°
2026-05-06 12:42 54.21104 40.77806 34893 ft 483 kts 112°
2026-05-06 12:42 54.18288 40.88217 34893 ft 484 kts 111°
2026-05-06 12:43 54.15464 40.98591 34893 ft 484 kts 111°
2026-05-06 12:43 54.12626 41.08986 34894 ft 484 kts 110°
2026-05-06 12:44 54.09793 41.19334 34893 ft 484 kts 110°
2026-05-06 12:44 54.06941 41.29697 34894 ft 484 kts 110°
2026-05-06 12:45 54.04072 41.40068 34894 ft 484 kts 110°
2026-05-06 12:46 53.99774 41.55512 34894 ft 484 kts 110°
2026-05-06 12:46 53.96887 41.65828 34894 ft 484 kts 111°
2026-05-06 12:47 53.94017 41.76064 34893 ft 484 kts 111°
2026-05-06 12:47 53.91106 41.86389 34893 ft 484 kts 111°
2026-05-06 12:48 53.88181 41.96657 34892 ft 484 kts 111°
2026-05-06 12:48 53.85242 42.06885 34892 ft 484 kts 111°
2026-05-06 12:49 53.82320 42.17069 34882 ft 484 kts 111°
2026-05-06 12:49 53.79378 42.27317 34872 ft 485 kts 111°
2026-05-06 12:50 53.76446 42.37497 34870 ft 484 kts 111°
2026-05-06 12:50 53.73474 42.47764 34873 ft 484 kts 111°
2026-05-06 12:51 53.70260 42.57766 34868 ft 489 kts 120°
2026-05-06 12:51 53.65783 42.66426 34866 ft 497 kts 136°
2026-05-06 12:52 53.60078 42.73125 34869 ft 502 kts 151°
2026-05-06 12:52 53.53726 42.77883 34869 ft 503 kts 156°
2026-05-06 12:53 53.47275 42.82417 34869 ft 503 kts 156°
2026-05-06 12:53 53.40840 42.87003 34869 ft 503 kts 156°
2026-05-06 12:54 53.34413 42.91608 34869 ft 503 kts 155°
2026-05-06 12:54 53.28007 42.96193 34869 ft 503 kts 155°
2026-05-06 12:55 53.21584 43.00779 34869 ft 503 kts 155°
2026-05-06 12:55 53.15189 43.05327 34869 ft 501 kts 155°
2026-05-06 12:56 53.08787 43.09978 34869 ft 500 kts 154°
2026-05-06 12:56 53.02481 43.14687 34869 ft 501 kts 155°
2026-05-06 12:57 52.96127 43.19416 34868 ft 501 kts 155°
2026-05-06 12:57 52.89743 43.24134 34868 ft 502 kts 155°
2026-05-06 12:58 52.83367 43.28801 34868 ft 502 kts 155°
2026-05-06 12:58 52.77016 43.33443 34868 ft 502 kts 155°
2026-05-06 12:59 52.70659 43.38086 34869 ft 502 kts 155°
2026-05-06 12:59 52.64288 43.42732 34869 ft 502 kts 155°
2026-05-06 13:00 52.57938 43.47346 34869 ft 502 kts 155°
2026-05-06 13:00 52.51561 43.51966 34868 ft 502 kts 155°
2026-05-06 13:01 52.45179 43.56575 34869 ft 502 kts 155°
2026-05-06 13:01 52.38784 43.61179 34869 ft 502 kts 155°
2026-05-06 13:02 52.32394 43.65767 34868 ft 502 kts 156°
2026-05-06 13:02 52.26034 43.70346 34868 ft 502 kts 156°
2026-05-06 13:03 52.19665 43.74904 34869 ft 502 kts 156°
2026-05-06 13:03 52.13303 43.79432 34869 ft 502 kts 156°
2026-05-06 13:04 52.06914 43.83962 34869 ft 502 kts 156°
2026-05-06 13:04 52.00541 43.88464 34869 ft 502 kts 156°
2026-05-06 13:05 51.94167 43.92953 34869 ft 502 kts 156°
2026-05-06 13:05 51.87764 43.97444 34867 ft 502 kts 156°
2026-05-06 13:06 51.81357 44.01905 34868 ft 502 kts 156°
2026-05-06 13:06 51.74971 44.06350 34868 ft 502 kts 156°
2026-05-06 13:07 51.68622 44.10765 34869 ft 502 kts 156°
2026-05-06 13:07 51.62214 44.15209 34869 ft 502 kts 156°
2026-05-06 13:08 51.55816 44.19634 34868 ft 502 kts 156°
2026-05-06 13:08 51.49441 44.24030 34869 ft 502 kts 156°
2026-05-06 13:09 51.43045 44.28426 34869 ft 502 kts 156°
2026-05-06 13:09 51.36671 44.32796 34869 ft 502 kts 156°
2026-05-06 13:10 51.30243 44.37193 34869 ft 502 kts 156°
2026-05-06 13:10 51.23870 44.41539 34869 ft 502 kts 156°
2026-05-06 13:11 51.17395 44.45666 34869 ft 502 kts 161°
2026-05-06 13:11 51.10723 44.48606 34868 ft 502 kts 168°
2026-05-06 13:12 51.03907 44.50733 34869 ft 502 kts 169°
2026-05-06 13:12 50.97097 44.52858 34871 ft 498 kts 169°
2026-05-06 13:13 50.90322 44.54982 34872 ft 492 kts 169°
2026-05-06 13:13 50.83687 44.57053 34869 ft 488 kts 169°
2026-05-06 13:14 50.77059 44.59117 34871 ft 488 kts 169°
2026-05-06 13:14 50.70400 44.61191 34873 ft 488 kts 169°
2026-05-06 13:15 50.63761 44.63256 34878 ft 488 kts 169°
2026-05-06 13:15 50.57139 44.65312 34891 ft 488 kts 170°
2026-05-06 13:16 50.50523 44.67388 34905 ft 488 kts 170°
2026-05-06 13:16 50.43886 44.69456 34913 ft 487 kts 170°
2026-05-06 13:17 50.37248 44.71505 34917 ft 488 kts 170°
2026-05-06 13:17 50.30639 44.73534 34921 ft 488 kts 170°
2026-05-06 13:18 50.24022 44.75557 34921 ft 487 kts 170°
2026-05-06 13:18 50.17383 44.77583 34921 ft 488 kts 170°
2026-05-06 13:19 50.10762 44.79597 34922 ft 488 kts 170°
2026-05-06 13:19 50.04099 44.81616 34921 ft 488 kts 170°
2026-05-06 13:20 49.97491 44.83615 34922 ft 487 kts 170°
2026-05-06 13:20 49.90852 44.85618 34922 ft 487 kts 170°
2026-05-06 13:21 49.84236 44.87601 34921 ft 487 kts 170°
2026-05-06 13:21 49.77599 44.89587 34922 ft 487 kts 171°
2026-05-06 13:22 49.70943 44.91579 34922 ft 486 kts 171°
2026-05-06 13:22 49.64375 44.93537 34922 ft 486 kts 171°
2026-05-06 13:23 49.57741 44.95510 34922 ft 484 kts 171°
2026-05-06 13:23 49.51144 44.97466 34922 ft 484 kts 171°
2026-05-06 13:24 49.44578 44.99408 34922 ft 482 kts 171°
2026-05-06 13:24 49.38024 45.01342 34922 ft 481 kts 171°
2026-05-06 13:25 49.31479 45.03267 34922 ft 480 kts 172°
2026-05-06 13:25 49.24961 45.05180 34922 ft 479 kts 172°
2026-05-06 13:26 49.18468 45.07079 34922 ft 477 kts 172°
2026-05-06 13:26 49.11993 45.08968 34922 ft 476 kts 172°
2026-05-06 13:27 49.05520 45.10863 34923 ft 474 kts 173°
2026-05-06 13:27 48.99091 45.12737 34923 ft 470 kts 174°
2026-05-06 13:28 48.92715 45.14585 34921 ft 466 kts 174°
2026-05-06 13:28 48.86389 45.16398 34920 ft 466 kts 175°
2026-05-06 13:29 48.80043 45.18216 34920 ft 465 kts 174°
2026-05-06 13:29 48.73686 45.20042 34920 ft 465 kts 174°
2026-05-06 13:30 48.67355 45.21857 34920 ft 465 kts 174°
2026-05-06 13:30 48.61025 45.23669 34920 ft 467 kts 174°
2026-05-06 13:31 48.54656 45.25495 34920 ft 465 kts 174°
2026-05-06 13:31 48.48320 45.27298 34920 ft 465 kts 174°
2026-05-06 13:32 48.42060 45.29527 34919 ft 470 kts 168°
2026-05-06 13:32 48.35883 45.32848 34919 ft 475 kts 162°
2026-05-06 13:33 48.29912 45.37116 34921 ft 478 kts 158°
2026-05-06 13:33 48.23994 45.41481 34920 ft 477 kts 159°
2026-05-06 13:34 48.18016 45.45864 34921 ft 478 kts 159°
2026-05-06 13:34 48.12077 45.50206 34921 ft 477 kts 159°
2026-05-06 13:35 48.06135 45.54536 34923 ft 477 kts 159°
2026-05-06 13:35 48.00216 45.58836 34921 ft 476 kts 159°
2026-05-06 13:36 47.94241 45.63167 34918 ft 477 kts 159°
2026-05-06 13:36 47.88308 45.67468 34921 ft 476 kts 159°
2026-05-06 13:37 47.82372 45.71758 34922 ft 476 kts 160°
2026-05-06 13:37 47.76393 45.76058 34922 ft 476 kts 160°
2026-05-06 13:38 47.70446 45.80325 34922 ft 477 kts 160°
2026-05-06 13:38 47.64525 45.84563 34920 ft 477 kts 159°
2026-05-06 13:39 47.58554 45.88827 34920 ft 477 kts 159°
2026-05-06 13:39 47.52617 45.93056 34919 ft 476 kts 159°
2026-05-06 13:40 47.46657 45.97289 34920 ft 476 kts 159°
2026-05-06 13:40 47.40734 46.01484 34919 ft 477 kts 159°
2026-05-06 13:41 47.34779 46.05696 34922 ft 476 kts 159°
2026-05-06 13:41 47.28813 46.09902 34921 ft 476 kts 159°
2026-05-06 13:42 47.22834 46.14113 34916 ft 476 kts 159°
2026-05-06 13:42 47.16913 46.18269 34911 ft 476 kts 159°
2026-05-06 13:43 47.10961 46.22523 34901 ft 478 kts 158°
2026-05-06 13:43 47.05014 46.26879 34893 ft 477 kts 158°
2026-05-06 13:44 46.99081 46.31208 34882 ft 478 kts 159°
2026-05-06 13:44 46.93170 46.35505 34875 ft 479 kts 160°
2026-05-06 13:45 46.87201 46.39818 34871 ft 479 kts 161°
2026-05-06 13:45 46.78257 46.46219 34869 ft 479 kts 161°
2026-05-06 13:46 46.72320 46.50470 34869 ft 478 kts 161°
2026-05-06 13:46 46.66343 46.54746 34867 ft 476 kts 161°
2026-05-06 13:47 46.60449 46.58958 34869 ft 474 kts 161°
2026-05-06 13:47 46.54557 46.63153 34868 ft 474 kts 161°
2026-05-06 13:48 46.48643 46.67372 34870 ft 474 kts 162°
2026-05-06 13:48 46.42717 46.71603 34868 ft 474 kts 162°
2026-05-06 13:49 46.36849 46.75765 34868 ft 474 kts 162°
2026-05-06 13:49 46.30912 46.79960 34869 ft 474 kts 162°
2026-05-06 13:50 46.25020 46.84108 34869 ft 474 kts 162°
2026-05-06 13:50 46.19126 46.88247 34868 ft 473 kts 162°
2026-05-06 13:51 46.13242 46.92370 34867 ft 474 kts 162°
2026-05-06 13:51 46.07340 46.96495 34867 ft 475 kts 162°
2026-05-06 13:52 46.01371 47.00655 34868 ft 476 kts 162°
2026-05-06 13:52 45.95426 47.04791 34867 ft 477 kts 162°
2026-05-06 13:53 45.89520 47.08889 34865 ft 474 kts 162°
2026-05-06 13:53 45.83570 47.12989 34868 ft 476 kts 162°
2026-05-06 13:54 45.77628 47.17082 34869 ft 475 kts 162°
2026-05-06 13:54 45.71679 47.21175 34868 ft 476 kts 162°
2026-05-06 13:55 45.65760 47.25247 34865 ft 476 kts 162°
2026-05-06 13:55 45.59772 47.29354 34867 ft 477 kts 162°
2026-05-06 13:56 45.53807 47.33438 34867 ft 476 kts 162°
2026-05-06 13:56 45.47851 47.37503 34866 ft 475 kts 162°
2026-05-06 13:57 45.41908 47.41548 34868 ft 476 kts 162°
2026-05-06 13:57 45.35962 47.45585 34867 ft 476 kts 162°
2026-05-06 13:58 45.29990 47.49630 34867 ft 477 kts 162°
2026-05-06 13:58 45.24027 47.53662 34868 ft 476 kts 162°
2026-05-06 13:59 45.18104 47.57657 34866 ft 476 kts 162°
2026-05-06 13:59 45.12136 47.61673 34868 ft 477 kts 162°
2026-05-06 14:00 45.06158 47.65700 34865 ft 477 kts 163°
2026-05-06 14:00 45.00247 47.69698 34869 ft 475 kts 165°
2026-05-06 14:01 44.94300 47.73692 34868 ft 473 kts 165°
2026-05-06 14:01 44.88364 47.77644 34869 ft 472 kts 165°
2026-05-06 14:02 44.82444 47.81565 34869 ft 472 kts 165°
2026-05-06 14:02 44.76522 47.85489 34869 ft 471 kts 165°
2026-05-06 14:03 44.70639 47.89383 34868 ft 472 kts 165°
2026-05-06 14:03 44.64707 47.93303 34868 ft 472 kts 165°
2026-05-06 14:04 44.58807 47.97196 34874 ft 471 kts 165°
2026-05-06 14:04 44.52872 48.01105 34900 ft 472 kts 165°
2026-05-06 14:05 44.46953 48.04989 34942 ft 470 kts 166°
2026-05-06 14:05 44.43932 48.06461 34954 ft 451 kts 179°
2026-05-06 14:05 44.40896 48.06872 34974 ft 431 kts 192°
2026-05-06 14:06 44.38010 48.06312 34987 ft 413 kts 205°
2026-05-06 14:06 44.35375 48.04925 34993 ft 400 kts 216°
2026-05-06 14:06 44.31172 48.00239 34997 ft 381 kts 236°
2026-05-06 14:07 44.28396 47.94065 35003 ft 377 kts 244°
2026-05-06 14:07 44.25814 47.87738 35002 ft 376 kts 244°
2026-05-06 14:08 44.23229 47.81386 35002 ft 376 kts 244°
2026-05-06 14:08 44.20663 47.75075 35002 ft 376 kts 244°
2026-05-06 14:09 44.18093 47.68768 35002 ft 376 kts 244°
2026-05-06 14:09 44.15503 47.62420 35003 ft 376 kts 244°
2026-05-06 14:10 44.12926 47.56116 35002 ft 376 kts 244°
2026-05-06 14:10 44.10336 47.49795 35003 ft 376 kts 244°
2026-05-06 14:11 44.07752 47.43498 35003 ft 376 kts 244°
2026-05-06 14:11 44.05158 47.37199 35003 ft 376 kts 244°
2026-05-06 14:12 44.02556 47.30881 35004 ft 376 kts 244°
2026-05-06 14:12 43.99965 47.24592 35002 ft 377 kts 244°
2026-05-06 14:13 43.97366 47.18303 35002 ft 377 kts 244°
2026-05-06 14:13 43.94754 47.12011 35002 ft 377 kts 244°
2026-05-06 14:14 43.92135 47.05714 35002 ft 377 kts 244°
2026-05-06 14:14 43.89511 46.99423 35003 ft 377 kts 244°
2026-05-06 14:15 43.86879 46.93187 35002 ft 377 kts 244°
2026-05-06 14:15 43.84241 46.86926 35003 ft 376 kts 244°
2026-05-06 14:16 43.81621 46.80701 35003 ft 376 kts 244°
2026-05-06 14:16 43.78995 46.74470 35002 ft 376 kts 244°
2026-05-06 14:17 43.76370 46.68242 35002 ft 376 kts 244°
2026-05-06 14:17 43.73730 46.61991 35002 ft 376 kts 244°
2026-05-06 14:18 43.71093 46.55768 35002 ft 376 kts 244°
2026-05-06 14:18 43.68459 46.49562 35002 ft 376 kts 244°
2026-05-06 14:19 43.65814 46.43340 35002 ft 376 kts 244°
2026-05-06 14:19 43.63167 46.37130 35003 ft 376 kts 244°
2026-05-06 14:20 43.60517 46.30920 35004 ft 376 kts 243°
2026-05-06 14:20 43.57866 46.24712 35002 ft 377 kts 243°
2026-05-06 14:21 43.55209 46.18521 35002 ft 377 kts 243°
2026-05-06 14:21 43.52723 46.12172 35003 ft 374 kts 249°
2026-05-06 14:22 43.51024 46.05451 35002 ft 372 kts 256°
2026-05-06 14:22 43.50155 45.98470 35002 ft 372 kts 264°
2026-05-06 14:23 43.50137 45.91340 35002 ft 374 kts 272°
2026-05-06 14:23 43.50669 45.84261 35003 ft 374 kts 274°
2026-05-06 14:24 43.51239 45.77115 35113 ft 377 kts 274°
2026-05-06 14:24 43.51527 45.73559 35485 ft 376 kts 274°
2026-05-06 14:24 43.51812 45.70000 35869 ft 374 kts 273°
2026-05-06 14:25 43.52097 45.66455 35988 ft 373 kts 274°
2026-05-06 14:25 43.52380 45.62909 35993 ft 372 kts 274°
2026-05-06 14:25 43.52945 45.55848 36000 ft 372 kts 274°
2026-05-06 14:26 43.53508 45.48768 36001 ft 372 kts 274°
2026-05-06 14:26 43.54065 45.41713 36001 ft 372 kts 274°
2026-05-06 14:27 43.54623 45.34589 36003 ft 372 kts 273°
2026-05-06 14:27 43.55173 45.27513 36003 ft 372 kts 273°
2026-05-06 14:28 43.55719 45.20413 36002 ft 372 kts 273°
2026-05-06 14:28 43.56259 45.13359 36002 ft 371 kts 273°
2026-05-06 14:29 43.56797 45.06282 36003 ft 373 kts 273°
2026-05-06 14:29 43.57332 44.99199 36007 ft 373 kts 272°
2026-05-06 14:30 43.57863 44.92087 36013 ft 374 kts 272°
2026-05-06 14:30 43.58392 44.84933 36021 ft 376 kts 272°
2026-05-06 14:31 43.58915 44.77751 36026 ft 375 kts 272°
2026-05-06 14:31 43.59432 44.70602 36030 ft 376 kts 272°
2026-05-06 14:32 43.59950 44.63430 36029 ft 376 kts 272°
2026-05-06 14:32 43.60462 44.56234 36029 ft 376 kts 272°
2026-05-06 14:33 43.60966 44.49102 36030 ft 376 kts 272°
2026-05-06 14:33 43.61472 44.41884 36028 ft 376 kts 272°
2026-05-06 14:34 43.61969 44.34727 36030 ft 376 kts 271°
2026-05-06 14:34 43.62459 44.27561 36026 ft 376 kts 271°
2026-05-06 14:35 43.62948 44.20367 36019 ft 376 kts 271°
2026-05-06 14:35 43.63404 44.13165 36013 ft 375 kts 270°
2026-05-06 14:36 43.63617 44.05980 36006 ft 375 kts 269°
2026-05-06 14:36 43.63806 43.98819 36003 ft 374 kts 269°
2026-05-06 14:37 43.63993 43.91649 36004 ft 375 kts 269°
2026-05-06 14:37 43.64173 43.84446 36003 ft 374 kts 269°
2026-05-06 14:38 43.64348 43.77295 36003 ft 374 kts 269°
2026-05-06 14:38 43.64518 43.70081 36002 ft 374 kts 269°
2026-05-06 14:39 43.64683 43.62925 36003 ft 374 kts 269°
2026-05-06 14:39 43.64843 43.55757 36003 ft 374 kts 269°
2026-05-06 14:40 43.64998 43.48587 36003 ft 374 kts 269°
2026-05-06 14:40 43.65149 43.41362 36004 ft 375 kts 269°
2026-05-06 14:41 43.65296 43.34188 36006 ft 375 kts 269°
2026-05-06 14:41 43.65439 43.26986 36003 ft 374 kts 268°
2026-05-06 14:42 43.65575 43.19852 36003 ft 374 kts 268°
2026-05-06 14:42 43.65708 43.12656 36004 ft 375 kts 269°
2026-05-06 14:43 43.65839 43.05446 36009 ft 376 kts 268°
2026-05-06 14:43 43.65963 42.98232 36018 ft 378 kts 268°
2026-05-06 14:44 43.66082 42.90979 36026 ft 379 kts 268°
2026-05-06 14:45 43.66254 42.80125 36037 ft 378 kts 268°
2026-05-06 14:45 43.66361 42.72847 36046 ft 378 kts 268°
2026-05-06 14:46 43.66463 42.65620 36051 ft 378 kts 268°
2026-05-06 14:46 43.66562 42.58369 36055 ft 378 kts 268°
2026-05-06 14:47 43.66656 42.51129 36057 ft 378 kts 268°
2026-05-06 14:47 43.66783 42.43877 36053 ft 379 kts 269°
2026-05-06 14:48 43.66924 42.36666 36057 ft 378 kts 269°
2026-05-06 14:48 43.67057 42.29390 36056 ft 378 kts 268°
2026-05-06 14:49 43.67185 42.22187 36056 ft 378 kts 268°
2026-05-06 14:49 43.67312 42.14950 36055 ft 378 kts 268°
2026-05-06 14:50 43.67432 42.07679 36054 ft 378 kts 268°
2026-05-06 14:50 43.67543 42.00468 36054 ft 378 kts 268°
2026-05-06 14:51 43.67654 41.93187 36055 ft 378 kts 268°
2026-05-06 14:51 43.67755 41.85939 36056 ft 378 kts 268°
2026-05-06 14:52 43.67853 41.78730 36058 ft 378 kts 268°
2026-05-06 14:52 43.67944 41.71479 36055 ft 378 kts 268°
2026-05-06 14:53 43.68032 41.64233 36056 ft 378 kts 268°
2026-05-06 14:53 43.68117 41.56953 36053 ft 378 kts 268°
2026-05-06 14:54 43.68195 41.49734 36055 ft 379 kts 268°
2026-05-06 14:54 43.68270 41.42451 36059 ft 378 kts 268°
2026-05-06 14:55 43.68338 41.35212 36072 ft 378 kts 268°
2026-05-06 14:55 43.68406 41.27965 36089 ft 378 kts 268°
2026-05-06 14:56 43.68467 41.20741 36101 ft 378 kts 268°
2026-05-06 14:56 43.68522 41.13501 36108 ft 378 kts 268°
2026-05-06 14:57 43.68569 41.06233 35898 ft 379 kts 268°
2026-05-06 14:57 43.68593 41.02618 35488 ft 376 kts 268°
2026-05-06 14:57 43.68614 40.99109 34778 ft 377 kts 268°
2026-05-06 14:57 43.68632 40.95522 33887 ft 382 kts 268°
2026-05-06 14:58 43.68653 40.91848 32938 ft 387 kts 267°
2026-05-06 14:58 43.68673 40.88104 31924 ft 393 kts 267°
2026-05-06 14:58 43.68698 40.84326 31002 ft 397 kts 267°
2026-05-06 14:58 43.68722 40.80518 30093 ft 400 kts 266°
2026-05-06 14:59 43.68742 40.76677 29161 ft 404 kts 266°
2026-05-06 14:59 43.68759 40.72814 28223 ft 407 kts 266°
2026-05-06 14:59 43.68772 40.68969 27535 ft 403 kts 266°
2026-05-06 14:59 43.68787 40.65138 26973 ft 398 kts 266°
2026-05-06 15:00 43.68801 40.61347 26414 ft 393 kts 266°
2026-05-06 15:00 43.68813 40.57583 25865 ft 388 kts 266°
2026-05-06 15:00 43.68821 40.53868 25318 ft 384 kts 266°
2026-05-06 15:00 43.68827 40.50257 24787 ft 380 kts 266°
2026-05-06 15:01 43.68832 40.46618 24249 ft 377 kts 266°
2026-05-06 15:01 43.68836 40.43003 23713 ft 374 kts 266°
2026-05-06 15:01 43.68841 40.39450 23187 ft 372 kts 266°
2026-05-06 15:01 43.68844 40.35919 22660 ft 370 kts 266°
2026-05-06 15:02 43.68846 40.32342 22128 ft 368 kts 265°
2026-05-06 15:02 43.68847 40.28849 21603 ft 367 kts 265°
2026-05-06 15:02 43.68845 40.25346 21091 ft 365 kts 265°
2026-05-06 15:02 43.68843 40.21831 20566 ft 364 kts 266°
2026-05-06 15:03 43.68835 40.18366 20050 ft 363 kts 264°
2026-05-06 15:03 43.68444 40.14958 19501 ft 357 kts 249°
2026-05-06 15:03 43.67392 40.11947 18979 ft 352 kts 234°
2026-05-06 15:03 43.65755 40.09452 18531 ft 346 kts 218°
2026-05-06 15:04 43.63784 40.07746 18390 ft 333 kts 207°
2026-05-06 15:04 43.61709 40.06396 18259 ft 321 kts 205°
2026-05-06 15:04 43.59725 40.05152 18143 ft 308 kts 205°
2026-05-06 15:04 43.57818 40.03962 18023 ft 298 kts 205°
2026-05-06 15:05 43.55949 40.02792 17671 ft 295 kts 205°
2026-05-06 15:05 43.54104 40.01638 17339 ft 292 kts 205°
2026-05-06 15:05 43.52274 40.00494 17015 ft 289 kts 205°
2026-05-06 15:05 43.50447 39.99352 16696 ft 286 kts 205°
2026-05-06 15:06 43.48656 39.98232 16383 ft 284 kts 205°
2026-05-06 15:06 43.46862 39.97111 16062 ft 281 kts 205°
2026-05-06 15:06 43.45058 39.96079 15659 ft 283 kts 201°
2026-05-06 15:06 43.43207 39.95201 15241 ft 285 kts 199°
2026-05-06 15:07 43.41335 39.94345 14816 ft 286 kts 199°
2026-05-06 15:07 43.39445 39.93480 14395 ft 287 kts 199°
2026-05-06 15:07 43.37547 39.92612 13973 ft 288 kts 199°
2026-05-06 15:07 43.35669 39.91756 13555 ft 289 kts 199°
2026-05-06 15:08 43.33761 39.90887 13130 ft 289 kts 198°
2026-05-06 15:08 43.31861 39.90023 12711 ft 289 kts 198°
2026-05-06 15:08 43.29949 39.89154 12292 ft 289 kts 198°
2026-05-06 15:08 43.28065 39.88300 11884 ft 288 kts 198°
2026-05-06 15:09 43.26171 39.87441 11479 ft 287 kts 198°
2026-05-06 15:09 43.24275 39.86583 11077 ft 286 kts 198°
2026-05-06 15:09 43.22384 39.85726 10678 ft 285 kts 199°
2026-05-06 15:09 43.20515 39.84881 10284 ft 283 kts 199°
2026-05-06 15:10 43.18678 39.84050 9905 ft 281 kts 199°
2026-05-06 15:10 43.16822 39.83211 9552 ft 279 kts 199°
2026-05-06 15:10 43.15009 39.82392 9212 ft 276 kts 199°
2026-05-06 15:10 43.13190 39.81570 8871 ft 273 kts 199°
2026-05-06 15:11 43.11412 39.80767 8538 ft 271 kts 199°
2026-05-06 15:11 43.09641 39.79968 8207 ft 268 kts 199°
2026-05-06 15:11 43.07863 39.79165 7875 ft 266 kts 199°
2026-05-06 15:11 43.06244 39.78041 7514 ft 264 kts 221°
2026-05-06 15:12 43.05177 39.76040 7171 ft 262 kts 248°
2026-05-06 15:12 43.04901 39.73608 6864 ft 261 kts 274°
2026-05-06 15:12 43.05450 39.71273 6560 ft 261 kts 301°
2026-05-06 15:12 43.06699 39.69525 6259 ft 262 kts 327°
2026-05-06 15:13 43.08399 39.68721 5962 ft 263 kts 354°
2026-05-06 15:13 43.10207 39.69056 5659 ft 264 kts 21°
2026-05-06 15:13 43.11701 39.70467 5357 ft 263 kts 49°
2026-05-06 15:13 43.12563 39.72610 5060 ft 261 kts 76°
2026-05-06 15:14 43.12877 39.75061 4769 ft 260 kts 81°
2026-05-06 15:14 43.13427 39.77401 4452 ft 259 kts 59°
2026-05-06 15:14 43.14628 39.79171 4144 ft 256 kts 30°
2026-05-06 15:14 43.16261 39.79991 3860 ft 251 kts
2026-05-06 15:15 43.17988 39.80392 3577 ft 249 kts
2026-05-06 15:15 43.19672 39.80722 3398 ft 243 kts
2026-05-06 15:15 43.21294 39.81041 3369 ft 229 kts
2026-05-06 15:15 43.22824 39.81351 3334 ft 217 kts
2026-05-06 15:16 43.24282 39.81656 3296 ft 205 kts
2026-05-06 15:16 43.25642 39.81956 3263 ft 193 kts
2026-05-06 15:16 43.26945 39.82421 3253 ft 193 kts 18°
2026-05-06 15:16 43.28184 39.83116 3182 ft 194 kts 23°
2026-05-06 15:17 43.29349 39.83896 3063 ft 177 kts 25°
2026-05-06 15:17 43.30382 39.84649 2849 ft 161 kts 26°
2026-05-06 15:17 43.31319 39.85357 2621 ft 147 kts 26°
2026-05-06 15:17 43.32178 39.86008 2410 ft 135 kts 26°
2026-05-06 15:18 43.32988 39.86615 2240 ft 134 kts 26°
2026-05-06 15:18 43.33808 39.87229 2068 ft 133 kts 26°
2026-05-06 15:18 43.34624 39.87840 1898 ft 133 kts 26°
2026-05-06 15:18 43.35424 39.88441 1731 ft 132 kts 26°
2026-05-06 15:19 43.36228 39.89044 1564 ft 132 kts 25°
2026-05-06 15:19 43.37035 39.89646 1397 ft 131 kts 26°
2026-05-06 15:19 43.37834 39.90250 1231 ft 131 kts 25°
2026-05-06 15:19 43.38634 39.90849 1065 ft 130 kts 26°
2026-05-06 15:20 43.39432 39.91449 900 ft 130 kts 26°
2026-05-06 15:20 43.40232 39.92039 735 ft 129 kts 24°
2026-05-06 15:20 43.41015 39.92630 575 ft 129 kts 26°
2026-05-06 15:20 43.41803 39.93232 400 ft 129 kts 26°
2026-05-06 15:21 43.42591 39.93827 227 ft 128 kts 25°
2026-05-06 15:21 43.43362 39.94413 84 ft 128 kts 25°
2026-05-06 15:21 43.44094 39.94956 56 ft 106 kts 27°
2026-05-06 15:21 43.44640 39.95365 62 ft 72 kts 28°
2026-05-06 15:22 43.44931 39.95586 68 ft 18 kts 27°
2026-05-06 15:22 43.44975 39.95596 68 ft 5 kts 305°
2026-05-06 15:22 43.45003 39.95549 68 ft 7 kts 329°
2026-05-06 15:22 43.45046 39.95519 68 ft 6 kts 317°
2026-05-06 15:23 43.45053 39.95451 68 ft 9 kts 246°
2026-05-06 15:23 43.45021 39.95356 65 ft 12 kts 245°
2026-05-06 15:23 43.44980 39.95232 62 ft 15 kts 245°
2026-05-06 15:23 43.44942 39.95124 61 ft 8 kts 242°
2026-05-06 15:24 43.44912 39.95038 60 ft 11 kts 245°
2026-05-06 15:24 43.44874 39.94925 58 ft 14 kts 244°
2026-05-06 15:24 43.44830 39.94796 57 ft 15 kts 245°
2026-05-06 15:24 43.44779 39.94649 55 ft 17 kts 245°
2026-05-06 15:25 43.44742 39.94539 56 ft 6 kts 248°
2026-05-06 15:25 43.44759 39.94494 56 ft 3 kts 321°
2026-05-06 15:25 43.44783 39.94476 57 ft 4 kts 335°
2026-05-06 15:25 43.44808 39.94459 57 ft 4 kts 335°
2026-05-06 15:26 43.44834 39.94443 58 ft 4 kts 335°
2026-05-06 15:26 43.44838 39.94440 58 ft 0 kts 335°